User: anonymous   Login
Location: Albany
(35.0000°S, 118.0000°E)
Time: 18:12:21
(UTC-04:00)
Language:

Cosmos 1758 Rocket - Orbit

View from above orbital plane
View from above orbital plane
View from above satellite
View from above satellite

Ground track
Ground track

The orbit data is extracted from the following two-line orbital elements,

1 16792U 86046B   17080.96255918 +.00000076 +00000-0 +63436-5 0  9990
2 16792 082.4802 284.4786 0023307 217.5569 255.4577 14.83120954640866
Epoch (UTC): 21 March 2017 23:06:05
Eccentricity: 0.0023307
inclination: 82.4802°
perigee height: 603 km
apogee height: 636 km
right ascension of ascending node: 284.4786°
argument of perigee: 217.5569°
revolutions per day: 14.83120954
mean anomaly at epoch: 255.4577°
orbit number at epoch: 64086

The dashed part of the orbit path shows where the satellite is in the earth's shadow,  

DLR